Probability
0 0 0 0 0 0 0 0 0 0 0 0 0 0 0 0 0 0 0 0 0 0 0 0 0 0 0 0 0 0 0 0 0 0 0 1 0 1 1 1 1 1 1 3 6 7 7 7 7
0 0 0 0 0 0 0 0 0 0 0 0 0 0 0 0 0 0 0 0 0 0 0 0 0 0 0 0 0 0 0 0 0 0 1 2 1 1 1 0 0 0 1 2 4 6 7 7 7
0 0 0 0 0 0 0 0 0 0 0 0 0 0 0 0 0 0 0 0 0 0 0 0 0 0 0 0 0 0 0 0 0 0 1 2 2 1 1 1 1 0 0 2 3 5 5 6 6
0 0 0 0 0 0 0 0 0 0 0 0 0 0 0 0 0 0 0 0 0 0 0 0 0 0 0 0 0 0 0 0 0 0 1 1 1 1 1 2 1 0 0 1 3 3 3 4 5
0 0 0 0 0 0 0 0 0 0 0 0 0 0 0 0 0 0 0 0 0 0 0 0 0 0 0 0 0 0 0 0 0 0 0 0 1 0 1 1 1 0 0 1 2 3 3 3 4
0 0 0 0 0 0 0 0 0 0 0 0 0 0 0 0 0 0 0 0 0 0 0 0 0 0 0 0 0 0 0 0 0 0 0 0 0 0 1 1 0 0 0 0 2 3 3 3 3
0 0 0 0 0 0 0 0 0 0 0 0 0 0 0 0 0 0 0 0 0 0 0 0 0 0 0 0 0 0 0 0 0 0 0 0 0 0 1 1 0 0 0 0 1 2 3 3 3
0 0 0 0 0 0 0 0 0 0 0 0 0 0 0 0 0 0 0 0 0 0 0 0 0 0 0 0 0 0 0 0 0 0 0 0 0 0 1 1 0 0 0 0 0 1 1 2 2
0 0 0 0 0 0 0 0 0 0 0 0 0 0 0 0 0 0 0 0 0 0 0 0 0 0 0 0 0 0 0 0 0 0 0 0 0 0 0 1 0 0 0 0 0 0 0 1 1
0 0 0 0 0 0 0 0 0 0 0 0 0 0 0 1 1 0 0 0 0 0 0 0 0 0 0 0 0 0 0 0 0 0 0 0 0 0 0 0 0 0 0 0 0 0 0 0 0
0 0 0 0 0 0 0 0 0 0 0 0 0 0 0 1 1 0 0 0 0 0 0 0 0 0 0 0 0 0 0 0 0 0 0 0 0 0 0 0 0 0 0 0 0 0 0 0 0
0 0 0 0 0 0 0 0 0 0 0 0 0 0 0 0 0 0 0 0 0 0 0 0 0 0 0 0 0 0 0 0 0 0 0 0 0 0 0 0 0 0 0 0 0 0 0 0 0
0 0 0 0 0 0 0 0 0 0 0 0 0 0 0 0 0 1 1 0 0 0 0 0 0 0 0 0 0 0 0 0 0 0 0 0 0 0 0 0 0 0 0 0 0 0 0 0 0
0 0 0 0 0 0 0 0 0 0 0 0 0 0 0 0 0 1 1 1 1 0 0 0 0 0 0 0 0 0 0 0 0 0 0 0 0 0 0 0 0 0 0 0 0 0 0 0 0
0 0 0 0 0 0 0 0 0 0 0 1 0 0 0 0 0 1 1 2 2 1 1 0 0 0 0 0 0 0 0 0 0 0 0 0 0 0 0 0 0 0 0 0 0 0 0 0 0
0 0 0 0 0 0 0 0 0 0 0 0 0 0 0 0 0 0 0 1 2 2 2 2 2 1 1 1 0 0 0 0 0 0 0 0 0 0 0 0 0 0 0 0 0 0 0 0 0
0 0 0 0 0 0 0 0 0 0 0 0 0 0 0 0 0 0 0 0 1 2 3 3 3 3 2 2 1 0 0 0 0 0 0 0 0 0 0 0 0 0 0 0 0 0 0 0 0
0 0 0 0 0 0 0 0 0 0 0 0 0 0 0 0 0 0 0 0 0 1 2 3 3 3 3 3 1 0 0 0 0 0 0 0 0 0 0 0 0 0 0 0 0 0 0 0 0
0 0 0 0 0 0 0 0 0 0 0 0 0 0 1 1 0 0 0 0 0 0 1 2 3 3 3 3 2 1 0 0 0 0 0 0 0 0 0 0 0 0 0 0 0 0 0 0 0
0 0 0 0 0 0 0 0 0 0 0 0 0 0 1 1 1 1 1 0 0 0 0 1 2 3 3 3 3 2 0 0 0 0 0 0 0 0 0 0 0 0 0 0 0 0 0 0 0
0 0 0 0 0 0 0 0 0 0 0 0 0 0 1 1 2 2 1 0 0 0 0 0 1 3 3 3 3 2 1 0 0 0 0 0 0 0 0 0 0 0 0 0 0 0 0 0 0
0 0 0 0 0 0 0 0 0 0 0 0 0 0 0 0 1 1 0 0 0 0 0 0 1 2 3 3 3 3 2 1 0 0 0 0 0 0 0 0 0 0 0 0 0 0 0 0 0
0 0 0 0 0 0 0 0 0 0 0 0 0 0 0 0 0 0 0 0 0 0 0 0 0 1 3 3 3 3 2 1 0 0 0 0 0 0 0 0 0 0 0 0 0 0 0 0 0
0 0 0 0 0 0 0 0 0 0 0 0 0 0 0 0 0 0 0 0 0 0 0 0 0 1 3 3 3 3 1 0 0 0 0 0 0 0 0 0 0 0 0 0 0 0 0 0 0
0 0 0 0 0 0 0 0 0 0 0 0 0 0 0 0 0 0 0 0 0 1 1 1 1 2 3 3 3 2 1 0 0 0 0 0 0 0 0 0 0 0 0 0 0 0 0 0 0
0 0 0 0 0 0 0 0 0 0 0 0 0 0 0 0 0 0 0 0 0 1 2 2 1 2 3 3 3 1 0 0 0 0 0 0 0 0 0 0 0 0 0 0 0 0 0 0 0
0 0 0 0 0 0 0 0 0 0 0 0 0 0 0 0 0 0 0 0 0 1 3 3 2 3 3 3 2 1 0 0 0 0 0 0 0 0 0 0 0 0 0 0 0 0 0 0 0
0 0 0 0 0 0 0 0 0 0 0 0 0 0 0 0 0 0 0 0 1 2 3 4 4 4 3 3 2 1 0 0 0 0 0 0 0 0 0 0 0 0 0 0 0 0 0 0 0
0 0 0 0 0 0 0 0 0 0 0 0 0 0 0 0 0 0 0 0 1 2 3 3 3 3 3 2 2 1 0 0 0 0 0 0 0 0 0 0 0 0 0 0 0 0 0 0 0
0 0 0 0 0 0 0 0 0 0 0 0 0 0 0 0 0 0 0 0 1 1 1 1 1 2 1 1 1 0 0 0 0 0 0 0 0 0 0 0 0 0 0 0 0 0 0 0 0
Wind_Speed
1 3 3 4 6 6 3 1 0 1 2 2 3 5 6 4 2 1 1 1 2 1 1 2 4 5 6 7 7 7 8 8 8 9 9 9 10 10 10 10 10 11 11 11 11 11 11 11 12
1 2 4 5 6 4 2 1 0 1 3 3 3 4 4 3 2 2 0 1 2 1 1 1 4 5 6 7 7 7 7 8 8 8 8 9 9 9 9 9 10 11 11 11 11 11 10 11 12
2 3 4 5 4 3 1 1 1 1 2 2 3 3 3 2 1 2 2 3 2 1 1 1 5 5 6 6 6 6 7 7 8 8 8 8 9 9 9 9 10 11 11 11 11 10 10 12 13
3 5 6 6 3 1 2 1 2 3 2 3 3 3 2 1 2 3 4 4 3 1 1 1 4 5 5 6 6 6 6 6 7 7 8 8 8 9 9 10 10 11 11 12 12 12 13 14 14
4 5 6 4 2 2 1 1 2 2 2 2 3 4 2 3 2 5 5 4 3 1 1 1 4 5 5 6 6 6 6 7 7 7 7 8 8 8 9 9 10 11 12 12 13 13 15 15 14
5 5 5 2 2 2 1 0 2 3 3 3 4 3 1 1 3 4 4 3 2 2 1 2 3 4 5 5 5 6 6 6 7 8 8 8 8 9 9 9 10 11 12 13 13 14 15 15 14
5 5 4 2 1 1 0 1 3 3 3 3 4 4 0 1 2 3 3 3 2 2 2 2 2 3 4 4 5 5 6 7 7 7 8 8 8 9 9 10 10 11 11 12 13 14 14 14 13
4 5 3 1 1 0 0 1 1 3 2 3 4 6 4 4 3 4 4 3 2 2 1 2 2 3 3 3 5 6 6 7 7 7 8 8 8 8 9 9 10 11 11 12 13 13 14 14 14
4 6 2 3 3 2 1 2 1 2 3 2 1 3 4 6 6 5 3 2 1 0 1 1 2 2 2 2 4 5 5 7 7 6 8 7 5 5 5 8 10 11 11 12 12 13 13 13 13
5 3 3 3 4 3 1 2 3 3 2 2 2 2 5 7 7 6 4 3 2 1 1 0 1 1 2 2 3 3 3 4 4 4 4 4 4 4 5 8 10 11 11 11 12 13 12 9 6
3 3 2 1 2 2 2 1 2 5 1 4 5 6 7 6 5 5 4 3 3 2 1 0 0 1 1 1 2 2 2 2 3 3 4 3 3 3 4 3 5 6 7 6 7 7 5 5 4
2 0 1 1 1 2 2 3 2 3 3 4 6 8 7 7 6 5 5 3 2 2 2 1 1 1 1 1 1 1 1 1 2 2 3 3 2 3 3 3 3 3 3 4 4 4 5 6 6
2 0 0 0 1 2 3 2 2 1 0 4 6 7 7 6 5 4 4 3 3 2 2 2 1 1 1 1 1 1 1 1 1 2 2 3 2 2 2 2 3 3 3 3 4 4 5 5 5
1 1 1 0 1 1 3 1 1 2 2 5 6 6 6 6 5 4 3 3 3 3 2 2 2 2 2 1 1 1 1 1 2 2 2 3 2 2 2 2 3 3 3 3 3 4 4 4 4
1 2 3 2 1 1 3 2 2 1 4 5 4 4 4 4 4 4 5 4 4 3 2 2 2 2 2 1 1 1 1 2 1 1 2 2 2 2 2 2 3 2 3 4 4 4 4 4 4
3 4 2 3 0 1 3 3 4 0 5 4 3 3 3 3 3 3 3 3 3 3 3 2 2 3 2 2 1 1 1 2 1 1 2 2 2 3 3 2 2 2 3 3 3 3 4 4 3
4 2 2 4 1 2 2 3 4 0 4 3 3 3 3 2 2 2 2 3 3 3 3 2 2 2 2 2 2 2 2 2 1 2 1 2 3 3 3 2 2 3 3 2 3 3 3 3 3
2 1 2 3 2 2 1 3 3 0 2 3 2 2 2 3 4 3 3 2 2 2 2 2 2 2 2 2 2 2 3 2 1 1 1 2 2 3 3 2 2 3 3 3 3 3 3 2 3
2 1 2 4 2 2 1 3 4 1 1 1 2 2 3 4 3 1 2 3 3 3 3 2 2 2 2 2 1 1 1 1 1 1 2 2 2 3 3 3 2 2 3 3 3 3 3 2 2
2 1 2 3 1 2 1 3 3 0 2 3 3 3 3 2 1 1 2 2 3 3 3 3 3 3 2 2 2 1 1 1 0 1 2 2 2 2 3 3 3 3 3 3 3 3 2 1 1
1 3 3 2 2 2 1 4 3 2 1 1 0 1 1 2 2 2 2 2 2 3 4 4 3 3 3 3 3 3 3 2 2 2 1 1 1 1 2 3 3 3 3 3 2 3 3 2 0
2 3 3 2 1 2 1 2 5 2 2 1 1 1 1 2 1 1 1 2 2 3 3 3 3 3 3 4 4 4 3 1 1 1 0 1 1 1 2 2 3 3 2 3 3 2 2 3 1
3 0 1 1 2 1 2 1 7 2 2 3 2 2 1 1 1 1 2 2 2 2 2 3 3 2 3 3 4 4 2 1 1 1 1 1 1 1 1 2 2 2 2 3 2 2 2 2 2
2 5 5 5 4 1 2 2 6 3 4 3 2 2 2 1 1 1 1 0 1 1 2 2 3 2 2 3 3 4 4 3 3 2 1 1 1 1 1 1 1 2 2 2 3 2 2 2 2
5 5 4 5 4 4 2 2 7 4 3 3 3 3 2 1 1 1 0 1 1 1 2 3 4 3 3 3 3 3 4 4 4 2 2 1 0 0 1 0 1 1 1 2 2 2 2 2 2
1 6 5 3 3 4 2 4 6 3 1 1 1 2 1 1 1 1 2 2 2 2 3 4 4 3 3 3 3 3 3 3 2 2 2 2 1 1 1 1 1 0 1 1 1 1 2 2 2
3 2 4 5 1 2 4 5 6 1 2 1 1 1 1 1 2 2 2 2 3 3 4 5 5 3 3 3 3 2 2 3 3 2 2 1 1 1 1 1 1 1 1 1 1 1 1 1 1
3 6 4 4 2 2 5 4 4 4 3 2 1 2 2 2 2 2 2 2 3 3 3 3 4 4 4 3 3 2 2 2 2 2 2 1 1 1 1 1 1 1 1 1 1 1 0 1 1
3 3 4 3 3 4 3 7 5 5 4 4 4 3 3 3 3 2 2 2 1 1 2 3 3 3 3 3 3 2 2 2 2 2 2 2 1 1 1 1 1 1 1 1 1 1 1 1 1
3 4 5 3 3 3 3 8 4 3 3 4 4 4 3 3 2 2 1 1 0 1 1 2 3 3 3 3 3 3 2 2 2 2 2 2 2 1 1 2 2 1 1 1 1 1 1 1 1
Wind_Direction
37 77 75 57 54 52 54 8 54 40 46 33 59 81 95 89 89 131 271 144 146 117 356 25 60 57 52 53 58 58 60 65 70 70 71 70 70 68 68 70 70 72 73 76 79 83 89 93 95
81 89 57 58 75 67 358 328 62 148 150 139 77 75 77 70 78 112 16 157 133 126 38 37 66 62 57 56 59 60 60 65 70 71 72 71 69 67 66 69 72 72 73 76 79 80 89 95 95
85 60 75 66 81 133 173 245 154 82 126 105 71 58 83 99 126 170 193 150 121 98 50 35 74 66 61 56 58 63 63 65 69 71 72 72 70 68 68 71 73 73 74 75 73 72 86 100 96
76 47 54 66 69 218 193 200 150 119 84 61 95 69 49 13 167 163 140 138 125 98 36 39 76 68 63 59 61 65 64 66 69 70 72 73 73 71 69 72 72 75 77 76 74 71 83 94 93
60 71 61 52 20 341 336 169 141 111 90 68 96 97 35 350 92 122 134 141 138 113 15 22 70 66 61 58 61 64 65 66 66 69 72 73 74 73 71 74 75 76 76 77 76 74 79 84 88
56 65 78 74 3 347 346 103 109 98 100 98 105 113 76 4 115 141 142 139 132 118 45 19 52 62 59 56 63 64 64 67 67 68 71 73 74 74 72 76 79 78 78 78 78 78 79 80 84
93 84 107 125 63 0 11 93 120 121 125 155 138 114 113 249 177 140 126 117 102 86 60 21 15 26 42 48 58 65 63 64 64 65 67 70 71 73 73 74 77 79 82 84 83 81 81 80 80
111 95 83 104 125 254 269 102 113 128 136 128 129 140 185 203 149 109 95 90 81 63 46 22 18 21 19 24 47 58 63 61 60 62 64 64 62 67 71 72 77 80 83 84 84 84 81 78 78
82 76 118 187 172 199 158 107 61 72 94 82 117 167 178 139 123 109 93 67 61 62 5 16 17 17 19 26 39 41 49 51 52 52 60 57 42 44 58 71 76 77 80 82 84 82 78 75 72
79 107 199 206 186 178 160 145 143 96 81 77 68 81 114 123 135 142 153 169 187 223 269 322 344 10 21 26 39 32 42 44 50 50 49 48 44 46 54 59 69 72 74 76 78 77 73 67 58
100 154 204 231 183 159 139 127 126 127 167 193 175 157 139 137 149 162 177 190 199 210 252 227 242 31 47 36 45 40 39 43 48 53 57 59 54 47 45 43 45 52 61 59 63 63 61 63 63
94 283 180 208 147 129 156 144 131 168 214 195 170 156 151 155 171 179 186 195 191 193 226 235 160 104 71 67 56 67 58 53 53 57 66 68 64 56 50 52 45 48 56 66 64 68 66 64 61
82 327 341 185 115 133 118 128 157 222 207 123 132 142 157 167 177 184 185 183 180 195 217 215 164 157 121 85 60 83 82 82 78 70 69 79 78 71 64 58 55 57 65 71 73 71 69 66 62
176 75 358 355 110 122 114 55 89 277 124 124 139 159 172 178 179 173 180 186 190 195 203 197 169 165 127 110 106 98 91 85 79 77 80 89 89 90 84 73 66 62 66 71 75 75 73 66 65
67 48 6 352 121 141 100 6 286 267 132 141 159 172 184 194 185 191 192 188 186 182 176 174 165 139 127 120 111 97 93 91 86 78 81 95 98 101 96 88 84 77 79 78 78 75 71 70 66
45 43 355 312 62 84 112 270 294 152 144 161 179 191 199 207 202 211 188 179 177 166 161 170 155 135 127 114 101 89 89 93 86 80 81 93 96 97 97 94 90 91 88 85 84 80 78 68 62
30 28 306 312 4 101 121 254 298 122 144 170 194 206 212 224 235 224 187 177 170 165 159 150 134 132 128 111 96 84 82 78 78 85 91 96 98 104 105 98 99 100 93 90 98 79 87 86 73
240 262 284 286 297 102 137 270 304 327 153 187 211 223 224 219 229 214 177 165 157 146 140 136 125 114 107 91 75 61 62 54 56 74 93 105 113 117 110 104 100 102 100 92 92 91 74 82 84
178 204 272 273 253 132 204 276 302 326 134 203 233 236 239 240 247 189 161 151 142 134 140 150 143 131 117 105 103 90 71 41 33 37 69 96 115 122 118 115 109 108 112 118 117 107 88 75 80
165 198 272 296 332 149 220 288 297 322 204 207 211 225 233 249 280 177 160 156 164 166 164 161 163 155 156 151 139 127 114 88 65 30 49 61 99 127 133 135 131 123 117 114 121 117 106 89 70
205 197 218 240 357 34 47 330 323 320 4 26 270 243 245 222 214 209 180 178 168 177 180 176 178 166 155 129 102 81 61 42 28 21 20 11 77 123 133 143 136 138 141 152 160 150 135 143 82
251 238 207 198 96 296 88 294 290 292 331 333 301 322 309 310 290 188 187 185 191 200 189 173 167 157 144 134 132 129 128 145 222 237 283 16 50 88 128 144 140 145 150 160 179 166 148 143 151
225 8 107 117 148 9 9 193 288 331 291 275 265 253 252 265 256 217 213 212 200 184 172 171 155 148 146 144 147 140 126 141 100 67 67 45 32 56 100 135 146 158 163 169 171 161 160 157 158
107 63 55 48 70 352 267 187 282 260 241 261 249 237 240 246 254 260 262 189 146 139 146 150 147 150 150 145 145 145 143 134 115 100 87 40 18 23 43 112 150 171 172 177 180 177 174 174 164
68 76 29 4 12 266 278 205 253 256 237 216 218 223 224 211 199 228 263 235 210 172 165 157 153 157 160 154 156 161 159 157 161 170 172 157 89 357 320 89 176 183 192 185 170 169 184 181 177
137 133 149 202 237 284 322 248 259 277 294 201 195 200 202 216 220 241 235 217 215 205 186 168 166 166 162 165 173 171 165 161 174 184 175 181 197 214 215 142 116 144 163 167 164 179 195 182 188
128 134 156 135 155 285 287 290 301 358 21 40 51 46 257 245 234 240 264 239 214 208 202 184 172 161 162 167 162 165 167 169 179 184 172 175 202 200 163 129 104 75 107 127 145 161 198 174 190
121 138 97 112 154 270 295 285 265 282 286 299 277 251 260 264 256 242 245 251 234 212 205 179 167 166 165 162 172 169 182 188 179 162 165 178 197 184 150 137 135 112 94 110 120 110 160 148 170
80 91 104 118 152 168 262 273 240 232 240 240 246 241 233 235 237 236 241 235 221 198 175 170 164 159 164 168 170 164 178 181 165 168 191 187 181 173 170 173 157 137 110 100 110 120 127 141 138
154 156 142 151 217 180 198 266 276 244 249 240 253 255 237 228 227 232 231 160 150 188 175 166 166 173 186 182 173 173 175 158 168 192 204 184 174 170 170 159 150 154 147 135 132 159 150 161 177